{"data":{"norad_id":53974,"intl_designator":"2022-125L","name":"STARLINK-5159","alt_names":[],"object_type":"PAYLOAD","status":"ACTIVE","operator":null,"country":"US","launch_date":"2022-10-05","launch_site_code":"AFWTR","launch_vehicle":null,"mission":null,"orbit_class":"UNKNOWN","rcs_meters":null,"size_class":null,"mass_kg":null,"dimensions":null,"purposes":["comms"],"wikipedia_slug":null,"has_3d_model":false,"image_url":null,"decayed_at":null,"tle_current":{"epoch":"2026-09-20T16:03:49.134816Z","epoch_age_seconds":71939,"freshness":"FRESH","line1":"1 53974U 22125L   26263.66931869  .00000731  00000+0  32783-4 0  9994","line2":"2 53974  53.1613  37.2666 0001029  87.7707 272.3414 15.34391039219190","mean_motion":15.34391039,"eccentricity":0.0001029,"inclination_deg":53.1613,"raan_deg":37.2666,"arg_perigee_deg":87.7707,"mean_anomaly_deg":272.3414,"bstar":3.2783e-5,"rev_number":21919,"period_min":93.848306161804,"perigee_km":462.0259491158,"apogee_km":463.43379951854,"semimajor_km":6840.8668743172,"source":"CELESTRAK","updated_at":"2026-09-21T09:00:33.040730Z"}}}